TimeEST,TemperatureF,Dew PointF,Humidity,Sea Level PressureIn,VisibilityMPH,Wind Direction,Wind SpeedMPH,Gust SpeedMPH,PrecipitationIn,Events,Conditions,WindDirDegrees,DateUTC
12:53 AM,21.9,10.0,60,30.20,10.0,WNW,10.4,17.3,N/A,,Overcast,300,2013-02-20 05:53:00
1:53 AM,21.9,9.0,58,30.21,10.0,WNW,8.1,-,N/A,,Overcast,300,2013-02-20 06:53:00
2:37 AM,21.2,8.6,58,30.18,10.0,NW,8.1,-,N/A,,Mostly Cloudy,310,2013-02-20 07:37:00
2:48 AM,19.4,8.6,63,30.18,10.0,WNW,9.2,18.4,N/A,,Scattered Clouds,300,2013-02-20 07:48:00
2:53 AM,19.9,9.0,62,30.22,10.0,WNW,8.1,-,N/A,,Partly Cloudy,290,2013-02-20 07:53:00
3:26 AM,19.4,10.4,68,30.20,10.0,Variable,6.9,18.4,N/A,,Mostly Cloudy,0,2013-02-20 08:26:00
3:53 AM,19.0,8.1,62,30.24,10.0,WNW,11.5,18.4,N/A,,Overcast,300,2013-02-20 08:53:00
4:20 AM,19.4,8.6,63,30.21,10.0,Variable,5.8,17.3,N/A,,Scattered Clouds,0,2013-02-20 09:20:00
4:37 AM,17.6,8.6,68,30.21,10.0,Variable,5.8,-,N/A,,Mostly Cloudy,0,2013-02-20 09:37:00
4:53 AM,18.0,8.1,65,30.24,10.0,NW,6.9,-,N/A,,Overcast,310,2013-02-20 09:53:00
5:53 AM,17.1,7.0,65,30.26,10.0,Variable,6.9,-,N/A,,Scattered Clouds,0,2013-02-20 10:53:00
6:53 AM,15.1,6.1,68,30.27,10.0,NNW,4.6,-,N/A,,Clear,330,2013-02-20 11:53:00
8:53 AM,15.1,6.1,68,30.32,10.0,NW,5.8,-,N/A,,Clear,310,2013-02-20 13:53:00
9:53 AM,18.0,6.1,60,30.32,10.0,North,8.1,-,N/A,,Clear,360,2013-02-20 14:53:00
10:53 AM,19.9,6.1,55,30.35,10.0,Variable,3.5,-,N/A,,Clear,0,2013-02-20 15:53:00
12:53 PM,23.0,9.0,55,30.35,10.0,Variable,5.8,-,N/A,,Clear,0,2013-02-20 17:53:00
1:53 PM,26.1,9.0,49,30.32,10.0,North,4.6,-,N/A,,Clear,360,2013-02-20 18:53:00
2:53 PM,26.1,10.0,51,30.32,10.0,West,8.1,-,N/A,,Clear,270,2013-02-20 19:53:00
3:53 PM,28.0,9.0,45,30.31,10.0,NNW,6.9,-,N/A,,Clear,340,2013-02-20 20:53:00
4:53 PM,26.1,9.0,49,30.30,10.0,WNW,4.6,-,N/A,,Clear,300,2013-02-20 21:53:00
5:53 PM,26.1,9.0,49,30.32,10.0,WNW,4.6,-,N/A,,Clear,290,2013-02-20 22:53:00
6:53 PM,25.0,10.9,55,30.33,10.0,Calm,Calm,-,N/A,,Clear,0,2013-02-20 23:53:00
7:53 PM,24.1,12.0,60,30.31,10.0,North,8.1,-,N/A,,Clear,10,2013-02-21 00:53:00
8:53 PM,23.0,12.0,63,30.32,10.0,North,5.8,-,N/A,,Clear,360,2013-02-21 01:53:00
9:53 PM,21.9,12.9,68,30.32,10.0,Calm,Calm,-,N/A,,Clear,0,2013-02-21 02:53:00
11:53 PM,19.0,12.0,74,30.32,10.0,Calm,Calm,-,N/A,,Clear,0,2013-02-21 04:53:00